timestamp,surface_pressure_avg,surface_temp_avg,battery_voltage,lat,long
2020-05-18 00:09:01+00:00,241.7447,4.2,13.29,47.84626,-54.09684
2020-05-18 00:19:01+00:00,239.6231,4.09,12.97,47.84626,-54.09684
2020-05-18 00:29:01+00:00,234.4264,4.0,12.97,47.84626,-54.09684
2020-05-18 00:39:01+00:00,227.4598,3.8,12.97,47.84626,-54.09684
2020-05-18 00:49:01+00:00,223.8715,3.71,12.97,47.84626,-54.09684
2020-05-18 00:59:01+00:00,225.1965,3.7,12.97,47.84626,-54.09684
2020-05-18 01:09:01+00:00,225.4231,3.99,12.97,47.84626,-54.09684
2020-05-18 01:19:01+00:00,220.8048,4.62,12.73,47.84626,-54.09684
2020-05-18 01:29:01+00:00,217.2714,4.6,12.73,47.84626,-54.09684
2020-05-18 01:39:01+00:00,215.4698,4.5,12.73,47.84626,-54.09684
2020-05-18 01:49:01+00:00,211.0348,4.4,12.73,47.84626,-54.09684
2020-05-18 01:59:01+00:00,205.7381,4.3,12.73,47.84626,-54.09684
2020-05-18 02:09:01+00:00,204.8047,4.12,12.73,47.84626,-54.09684
2020-05-18 02:19:01+00:00,202.8048,4.17,12.65,47.84626,-54.09684
2020-05-18 02:29:01+00:00,199.1381,4.55,12.65,47.84626,-54.09684
2020-05-18 02:39:01+00:00,197.7731,4.7,12.65,47.84626,-54.09684
2020-05-18 02:49:01+00:00,200.7014,4.3,12.65,47.84626,-54.09684
2020-05-18 02:59:01+00:00,202.5098,4.3,12.65,47.84626,-54.09684
2020-05-18 03:09:01+00:00,202.4331,4.46,12.65,47.84626,-54.09684
2020-05-18 03:19:01+00:00,202.7464,4.4,12.65,47.84626,-54.09684
2020-05-18 03:29:01+00:00,204.0481,4.25,12.65,47.84626,-54.09684
2020-05-18 03:39:01+00:00,205.2398,4.2,12.65,47.84626,-54.09684
2020-05-18 03:49:01+00:00,206.7865,4.1,12.65,47.84626,-54.09684
2020-05-18 03:59:01+00:00,207.8281,4.19,12.65,47.84626,-54.09684
2020-05-18 04:09:01+00:00,211.4698,4.3,12.65,47.84626,-54.09684
2020-05-18 04:19:01+00:00,214.3864,4.22,12.65,47.84626,-54.09684
2020-05-18 04:29:01+00:00,216.0747,4.66,12.65,47.84626,-54.09684
2020-05-18 04:39:01+00:00,218.0747,4.5,12.65,47.84626,-54.09684
2020-05-18 04:49:01+00:00,220.7114,4.3,12.65,47.84626,-54.09684
2020-05-18 04:59:01+00:00,223.2015,4.2,12.65,47.84626,-54.09684
2020-05-18 05:09:01+00:00,226.0531,4.1,12.65,47.84626,-54.09684
2020-05-18 05:19:01+00:00,228.1898,4.04,12.65,47.84626,-54.09684
2020-05-18 05:29:01+00:00,232.2331,4.1,12.65,47.84626,-54.09684
2020-05-18 05:39:01+00:00,237.2364,4.1,12.65,47.84626,-54.09684
2020-05-18 05:49:01+00:00,240.3997,4.1,12.65,47.84626,-54.09684
2020-05-18 05:59:01+00:00,243.9564,4.2,12.65,47.84626,-54.09684
2020-05-18 06:09:01+00:00,253.2764,4.2,12.65,47.84626,-54.09684
2020-05-18 06:19:01+00:00,261.4647,4.23,12.65,47.84626,-54.09684
2020-05-18 06:29:01+00:00,267.7314,4.3,12.65,47.84626,-54.09684
2020-05-18 06:39:01+00:00,271.5015,4.3,12.65,47.84626,-54.09684
2020-05-18 06:49:01+00:00,278.9197,4.32,12.65,47.84626,-54.09684
2020-05-18 06:59:01+00:00,284.3381,4.36,12.65,47.84626,-54.09684
2020-05-18 07:09:01+00:00,291.3214,4.34,12.65,47.84626,-54.09684
2020-05-18 07:19:01+00:00,293.7064,4.35,12.57,47.84626,-54.09684
2020-05-18 07:29:01+00:00,297.4663,4.38,12.57,47.84626,-54.09684
2020-05-18 07:39:01+00:00,300.8765,4.4,12.57,47.84626,-54.09684
2020-05-18 07:49:01+00:00,303.5314,4.36,12.57,47.84626,-54.09684
2020-05-18 07:59:01+00:00,302.2813,4.39,12.57,47.84626,-54.09684
2020-05-18 08:09:01+00:00,305.4396,4.4,12.57,47.84626,-54.09684
2020-05-18 08:19:01+00:00,308.5496,4.4,12.57,47.84626,-54.09684
2020-05-18 08:29:01+00:00,309.5063,4.38,12.57,47.84626,-54.09684
2020-05-18 08:39:01+00:00,308.1812,4.31,12.57,47.84626,-54.09684
2020-05-18 08:49:01+00:00,307.7264,4.33,12.57,47.84626,-54.09684
2020-05-18 08:59:01+00:00,306.6762,4.3,12.57,47.84626,-54.09684
2020-05-18 09:09:01+00:00,307.803,4.3,12.57,47.84626,-54.09684
2020-05-18 09:19:01+00:00,309.6097,4.3,12.57,47.84626,-54.09684
2020-05-18 09:29:01+00:00,307.9797,4.3,12.57,47.84626,-54.09684
2020-05-18 09:39:01+00:00,306.9914,4.36,12.57,47.84626,-54.09684
2020-05-18 09:49:01+00:00,307.4847,4.4,12.57,47.84626,-54.09684
2020-05-18 09:59:01+00:00,306.8397,4.4,12.57,47.84626,-54.09684
2020-05-18 10:09:01+00:00,302.948,4.4,12.57,47.84626,-54.09684
2020-05-18 10:19:01+00:00,303.0496,4.44,12.73,47.84626,-54.09684
2020-05-18 10:29:01+00:00,299.868,4.44,12.73,47.84626,-54.09684
2020-05-18 10:39:01+00:00,293.0464,4.4,12.73,47.84626,-54.09684
2020-05-18 10:49:01+00:00,287.8898,4.4,12.73,47.84626,-54.09684
2020-05-18 10:59:01+00:00,288.2229,4.4,12.73,47.84626,-54.09684
2020-05-18 11:09:01+00:00,284.0131,4.42,12.73,47.84626,-54.09684
2020-05-18 11:19:01+00:00,275.0231,4.42,13.29,47.84626,-54.09684
2020-05-18 11:29:01+00:00,268.0898,4.43,13.29,47.84626,-54.09684
2020-05-18 11:39:01+00:00,266.7464,4.48,13.29,47.84626,-54.09684
2020-05-18 11:49:01+00:00,261.7681,4.5,13.29,47.84626,-54.09684
2020-05-18 11:59:01+00:00,253.5647,4.59,13.29,47.84626,-54.09684
2020-05-18 12:09:01+00:00,248.5547,4.6,13.29,47.84626,-54.09684
2020-05-18 12:19:01+00:00,246.1747,4.59,14.24,47.84626,-54.09684
2020-05-18 12:29:01+00:00,239.2781,4.68,14.24,47.84626,-54.09684
2020-05-18 12:39:01+00:00,235.0181,4.71,14.24,47.84626,-54.09684
2020-05-18 12:49:01+00:00,232.1364,4.7,14.24,47.84626,-54.09684
2020-05-18 12:59:01+00:00,228.1064,4.7,14.24,47.84626,-54.09684
2020-05-18 13:09:01+00:00,223.1481,4.8,14.24,47.84626,-54.09684
2020-05-18 13:19:01+00:00,220.2097,4.8,14.24,47.84626,-54.09684
2020-05-18 13:29:01+00:00,216.9198,4.83,14.24,47.84626,-54.09684
2020-05-18 13:39:01+00:00,212.8348,4.86,14.24,47.84626,-54.09684
2020-05-18 13:49:01+00:00,209.6381,4.88,14.24,47.84626,-54.09684
2020-05-18 13:59:01+00:00,208.5265,4.89,14.24,47.84626,-54.09684
2020-05-18 14:09:01+00:00,209.5615,4.89,14.24,47.84626,-54.09684
2020-05-18 14:19:01+00:00,210.5148,4.88,14.32,47.84626,-54.09684
2020-05-18 14:29:01+00:00,208.6298,4.9,14.32,47.84626,-54.09684
2020-05-18 14:39:01+00:00,206.1315,4.9,14.32,47.84626,-54.09684
2020-05-18 14:49:01+00:00,205.0298,4.9,14.32,47.84626,-54.09684
2020-05-18 14:59:01+00:00,203.5281,4.9,14.32,47.84626,-54.09684
2020-05-18 15:09:01+00:00,203.1547,4.9,14.32,47.84626,-54.09684
2020-05-18 15:19:01+00:00,205.3548,4.9,14.48,47.84626,-54.09684
2020-05-18 15:29:01+00:00,203.9865,4.9,14.48,47.84626,-54.09684
2020-05-18 15:39:01+00:00,201.3048,4.91,14.48,47.84626,-54.09684
2020-05-18 15:49:01+00:00,203.7631,4.94,14.48,47.84626,-54.09684
2020-05-18 15:59:01+00:00,206.8564,4.97,14.48,47.84626,-54.09684
2020-05-18 16:09:01+00:00,206.7531,4.99,14.48,47.84626,-54.09684
2020-05-18 16:19:01+00:00,208.0682,4.99,14.4,47.84626,-54.09684
2020-05-18 16:29:01+00:00,213.3082,4.9,14.4,47.84626,-54.09684
2020-05-18 16:39:01+00:00,217.0081,4.9,14.4,47.84626,-54.09684
2020-05-18 16:49:01+00:00,220.2581,4.9,14.4,47.84626,-54.09684
2020-05-18 16:59:01+00:00,223.6598,4.9,14.4,47.84626,-54.09684
2020-05-18 17:09:01+00:00,227.8314,4.9,14.4,47.84626,-54.09684
2020-05-18 17:19:01+00:00,229.5681,4.88,14.24,47.84626,-54.09684
2020-05-18 17:29:01+00:00,231.3014,4.89,14.24,47.84626,-54.09684
2020-05-18 17:39:01+00:00,235.8231,4.89,14.24,47.84626,-54.09684
2020-05-18 17:49:01+00:00,243.1248,4.86,14.24,47.84626,-54.09684
2020-05-18 17:59:01+00:00,246.593,4.86,14.24,47.84626,-54.09684
2020-05-18 18:09:01+00:00,247.7164,4.8,14.24,47.84626,-54.09684
2020-05-18 18:19:01+00:00,251.6948,4.7,14.24,47.84626,-54.09684
2020-05-18 18:29:01+00:00,257.7698,4.63,14.24,47.84626,-54.09684
2020-05-18 18:39:01+00:00,260.9897,4.7,14.24,47.84626,-54.09684
2020-05-18 18:49:01+00:00,264.2864,4.8,14.24,47.84626,-54.09684
2020-05-18 18:59:01+00:00,272.3897,4.6,14.24,47.84626,-54.09684
2020-05-18 19:09:01+00:00,279.0597,4.6,14.24,47.84626,-54.09684
2020-05-18 19:19:01+00:00,283.2664,4.6,14.16,47.84626,-54.09684
2020-05-18 19:29:01+00:00,289.4714,4.7,14.16,47.84626,-54.09684
2020-05-18 19:39:01+00:00,296.583,4.7,14.16,47.84626,-54.09684
2020-05-18 19:49:01+00:00,301.2847,4.7,14.16,47.84626,-54.09684
2020-05-18 19:59:01+00:00,303.3829,4.78,14.16,47.84626,-54.09684
2020-05-18 20:09:01+00:00,307.7047,4.7,14.16,47.84626,-54.09684
2020-05-18 20:19:01+00:00,311.908,4.6,14.0,47.84626,-54.09684
2020-05-18 20:29:01+00:00,312.4915,4.6,14.0,47.84626,-54.09684
2020-05-18 20:39:01+00:00,313.4197,4.6,14.0,47.84626,-54.09684
2020-05-18 20:49:01+00:00,315.6463,4.6,14.0,47.84626,-54.09684
2020-05-18 20:59:01+00:00,317.8913,4.6,14.0,47.84626,-54.09684
2020-05-18 21:09:01+00:00,316.9781,4.69,14.0,47.84626,-54.09684
2020-05-18 21:19:01+00:00,318.4564,4.81,13.92,47.84626,-54.09684
2020-05-18 21:29:01+00:00,318.9463,4.9,13.92,47.84626,-54.09684
2020-05-18 21:39:01+00:00,319.4547,4.98,13.92,47.84626,-54.09684
2020-05-18 21:49:01+00:00,320.0213,5.0,13.92,47.84626,-54.09684
2020-05-18 21:59:01+00:00,319.2014,5.04,13.92,47.84626,-54.09684
2020-05-18 22:09:01+00:00,316.2047,5.1,13.92,47.84626,-54.09684
2020-05-18 22:19:01+00:00,315.0432,5.1,13.6,47.84626,-54.09684
2020-05-18 22:29:01+00:00,315.673,5.1,13.6,47.84626,-54.09684
2020-05-18 22:39:01+00:00,311.7663,5.13,13.6,47.84626,-54.09684
2020-05-18 22:49:01+00:00,309.403,5.14,13.6,47.84626,-54.09684
2020-05-18 22:59:01+00:00,309.0697,5.13,13.6,47.84626,-54.09684
2020-05-18 23:09:01+00:00,305.923,5.11,13.6,47.84626,-54.09684
2020-05-18 23:19:01+00:00,301.0347,5.11,13.21,47.84626,-54.09684
2020-05-18 23:29:01+00:00,299.3797,5.1,13.21,47.84626,-54.09684
2020-05-18 23:39:01+00:00,295.313,5.1,13.21,47.84626,-54.09684
2020-05-18 23:49:01+00:00,285.1947,5.1,13.21,47.84626,-54.09684
2020-05-18 23:59:01+00:00,277.1364,5.14,13.21,47.84626,-54.09684
